Time,TemperatureF,DewpointF,PressureIn,WindDirection,WindDirectionDegrees,WindSpeedMPH,WindSpeedGustMPH,Humidity,HourlyPrecipIn,Conditions,Clouds,dailyrainin,SoftwareType,DateUTC
2013-01-27 00:03:00,22.0,18.0,-100.00,East,95,0.0,1.0,84,0.00,,,-99.99,,2013-01-27 05:03:00,
2013-01-27 00:12:00,21.0,18.0,-100.00,East,90,0.0,1.0,85,0.00,,,-99.99,,2013-01-27 05:12:00,
2013-01-27 00:22:00,21.0,17.0,-100.00,East,90,0.0,1.0,86,0.00,,,-99.99,,2013-01-27 05:22:00,
2013-01-27 00:32:00,21.0,17.0,-100.00,East,80,1.0,1.0,86,0.00,,,-99.99,,2013-01-27 05:32:00,
2013-01-27 00:41:00,21.0,18.0,-100.00,ENE,60,0.0,1.0,87,0.00,,,-99.99,,2013-01-27 05:41:00,
2013-01-27 00:52:00,21.0,17.0,-100.00,ENE,75,0.0,2.0,87,0.00,,,-99.99,,2013-01-27 05:52:00,
2013-01-27 01:02:00,21.0,18.0,-100.00,East,90,0.0,2.0,87,0.00,,,-99.99,,2013-01-27 06:02:00,
2013-01-27 01:11:00,20.0,17.0,-100.00,East,100,1.0,2.0,87,0.00,,,-99.99,,2013-01-27 06:11:00,
2013-01-27 01:21:00,20.0,17.0,-100.00,ESE,105,1.0,2.0,88,0.00,,,-99.99,,2013-01-27 06:21:00,
2013-01-27 01:32:00,19.0,17.0,-100.00,ESE,110,1.0,2.0,88,0.00,,,-99.99,,2013-01-27 06:32:00,
2013-01-27 01:42:00,19.0,17.0,-100.00,East,90,1.0,2.0,89,0.00,,,-99.99,,2013-01-27 06:42:00,
2013-01-27 01:52:00,19.0,17.0,-100.00,East,85,0.0,1.0,89,0.00,,,-99.99,,2013-01-27 06:52:00,
2013-01-27 02:01:00,19.0,17.0,-100.00,East,100,0.0,2.0,89,0.00,,,-99.99,,2013-01-27 07:01:00,
2013-01-27 02:14:00,19.0,17.0,-100.00,ESE,105,1.0,2.0,89,0.00,,,-99.99,,2013-01-27 07:14:00,
2013-01-27 02:21:00,19.0,17.0,-100.00,ESE,110,1.0,2.0,90,0.00,,,-99.99,,2013-01-27 07:21:00,
2013-01-27 02:32:00,19.0,17.0,-100.00,East,100,0.0,2.0,89,0.00,,,-99.99,,2013-01-27 07:32:00,
2013-01-27 02:41:00,19.0,17.0,-100.00,East,100,0.0,0.0,89,0.00,,,-99.99,,2013-01-27 07:41:00,
2013-01-27 02:51:00,19.0,16.0,-100.00,East,100,0.0,1.0,89,0.00,,,-99.99,,2013-01-27 07:51:00,
2013-01-27 03:01:00,19.0,16.0,-100.00,East,85,0.0,1.0,89,0.00,,,-99.99,,2013-01-27 08:01:00,
2013-01-27 03:11:00,19.0,16.0,-100.00,East,90,0.0,1.0,90,0.00,,,-99.99,,2013-01-27 08:11:00,
2013-01-27 03:22:00,19.0,16.0,-100.00,East,85,0.0,1.0,90,0.00,,,-99.99,,2013-01-27 08:22:00,
2013-01-27 03:32:00,19.0,16.0,-100.00,ESE,105,0.0,1.0,90,0.00,,,-99.99,,2013-01-27 08:32:00,
2013-01-27 03:42:00,18.0,16.0,-100.00,East,95,0.0,1.0,90,0.00,,,-99.99,,2013-01-27 08:42:00,
2013-01-27 03:52:00,19.0,16.0,-100.00,ENE,70,0.0,1.0,90,0.00,,,-99.99,,2013-01-27 08:52:00,
2013-01-27 04:03:00,19.0,16.0,-100.00,East,80,0.0,0.0,90,0.00,,,-99.99,,2013-01-27 09:03:00,
2013-01-27 04:11:00,18.0,15.0,-100.00,ESE,115,0.0,1.0,90,0.00,,,-99.99,,2013-01-27 09:11:00,
2013-01-27 04:21:00,18.0,15.0,-100.00,ESE,115,0.0,1.0,90,0.00,,,-99.99,,2013-01-27 09:21:00,
2013-01-27 04:32:00,18.0,15.0,-100.00,ESE,115,0.0,1.0,90,0.00,,,-99.99,,2013-01-27 09:32:00,
2013-01-27 04:41:00,18.0,16.0,-100.00,ESE,115,0.0,1.0,90,0.00,,,-99.99,,2013-01-27 09:41:00,
2013-01-27 04:51:00,18.0,16.0,-100.00,ENE,70,0.0,1.0,90,0.00,,,-99.99,,2013-01-27 09:51:00,
2013-01-27 05:01:00,18.0,16.0,-100.00,SE,125,0.0,1.0,90,0.00,,,-99.99,,2013-01-27 10:01:00,
2013-01-27 05:11:00,18.0,15.0,-100.00,SE,125,0.0,1.0,90,0.00,,,-99.99,,2013-01-27 10:11:00,
2013-01-27 05:21:00,17.0,15.0,-100.00,East,95,0.0,1.0,89,0.00,,,-99.99,,2013-01-27 10:21:00,
2013-01-27 05:32:00,17.0,15.0,-100.00,East,80,0.0,1.0,90,0.00,,,-99.99,,2013-01-27 10:32:00,
2013-01-27 05:42:00,17.0,15.0,-100.00,NNE,25,0.0,0.0,90,0.00,,,-99.99,,2013-01-27 10:42:00,
2013-01-27 05:51:00,17.0,15.0,-100.00,ENE,70,0.0,0.0,90,0.00,,,-99.99,,2013-01-27 10:51:00,
2013-01-27 06:01:00,17.0,14.0,-100.00,ESE,105,0.0,1.0,90,0.00,,,-99.99,,2013-01-27 11:01:00,
2013-01-27 06:11:00,18.0,15.0,-100.00,East,80,0.0,0.0,91,0.00,,,-99.99,,2013-01-27 11:11:00,
2013-01-27 06:21:00,17.0,15.0,-100.00,East,95,1.0,2.0,90,0.00,,,-99.99,,2013-01-27 11:21:00,
2013-01-27 06:32:00,16.0,14.0,-100.00,ESE,105,0.0,2.0,90,0.00,,,-99.99,,2013-01-27 11:32:00,
2013-01-27 06:42:00,17.0,14.0,-100.00,East,95,0.0,0.0,90,0.00,,,-99.99,,2013-01-27 11:42:00,
2013-01-27 06:52:00,16.0,14.0,-100.00,ENE,60,0.0,0.0,90,0.00,,,-99.99,,2013-01-27 11:52:00,
2013-01-27 07:02:00,17.0,14.0,-100.00,ENE,75,0.0,0.0,90,0.00,,,-99.99,,2013-01-27 12:02:00,
2013-01-27 07:12:00,16.0,14.0,-100.00,East,95,0.0,1.0,90,0.00,,,-99.99,,2013-01-27 12:12:00,
2013-01-27 07:21:00,16.0,14.0,-100.00,NE,35,0.0,1.0,90,0.00,,,-99.99,,2013-01-27 12:21:00,
2013-01-27 07:32:00,16.0,13.0,-100.00,ESE,105,1.0,1.0,90,0.00,,,-99.99,,2013-01-27 12:32:00,
2013-01-27 07:42:00,16.0,13.0,-100.00,East,100,0.0,1.0,90,0.00,,,-99.99,,2013-01-27 12:42:00,
2013-01-27 07:52:00,15.0,13.0,-100.00,ESE,115,1.0,2.0,90,0.00,,,-99.99,,2013-01-27 12:52:00,
2013-01-27 08:02:00,15.0,13.0,-100.00,SE,125,1.0,2.0,90,0.00,,,-99.99,,2013-01-27 13:02:00,
2013-01-27 08:11:00,17.0,15.0,-100.00,ENE,65,1.0,2.0,91,0.00,,,-99.99,,2013-01-27 13:11:00,
2013-01-27 08:22:00,16.0,14.0,-100.00,East,85,1.0,2.0,90,0.00,,,-99.99,,2013-01-27 13:22:00,
2013-01-27 08:32:00,17.0,14.0,-100.00,East,85,0.0,1.0,90,0.00,,,-99.99,,2013-01-27 13:32:00,
2013-01-27 08:42:00,17.0,15.0,-100.00,ESE,105,0.0,0.0,90,0.00,,,-99.99,,2013-01-27 13:42:00,
2013-01-27 08:52:00,19.0,17.0,-100.00,East,80,0.0,1.0,91,0.00,,,-99.99,,2013-01-27 13:52:00,
2013-01-27 09:02:00,19.0,17.0,-100.00,East,100,0.0,1.0,90,0.00,,,-99.99,,2013-01-27 14:02:00,
2013-01-27 09:12:00,21.0,18.0,-100.00,SE,130,0.0,1.0,89,0.00,,,-99.99,,2013-01-27 14:12:00,
2013-01-27 09:22:00,21.0,18.0,-100.00,SE,130,0.0,1.0,88,0.00,,,-99.99,,2013-01-27 14:22:00,
2013-01-27 09:33:00,23.0,20.0,-100.00,SE,130,0.0,0.0,87,0.00,,,-99.99,,2013-01-27 14:33:00,
2013-01-27 09:42:00,24.0,20.0,-100.00,South,190,0.0,1.0,84,0.00,,,-99.99,,2013-01-27 14:42:00,
2013-01-27 09:52:00,26.0,21.0,-100.00,SSE,165,0.0,3.0,80,0.00,,,-99.99,,2013-01-27 14:52:00,
2013-01-27 10:02:00,26.0,21.0,-100.00,SE,145,1.0,3.0,80,0.00,,,-99.99,,2013-01-27 15:02:00,
2013-01-27 10:12:00,27.0,22.0,-100.00,SE,135,1.0,3.0,78,0.00,,,-99.99,,2013-01-27 15:12:00,
2013-01-27 10:22:00,29.0,22.0,-100.00,ESE,120,1.0,3.0,74,0.00,,,-99.99,,2013-01-27 15:22:00,
2013-01-27 10:32:00,30.0,22.0,-100.00,SE,135,2.0,3.0,73,0.00,,,-99.99,,2013-01-27 15:32:00,
2013-01-27 10:42:00,32.0,23.0,-100.00,ESE,105,1.0,3.0,69,0.00,,,-99.99,,2013-01-27 15:42:00,
2013-01-27 10:52:00,34.0,24.0,-100.00,ENE,70,3.0,6.0,66,0.00,,,-99.99,,2013-01-27 15:52:00,
2013-01-27 11:02:00,35.0,24.0,-100.00,ENE,70,5.0,9.0,62,0.00,,,-99.99,,2013-01-27 16:02:00,
2013-01-27 11:12:00,35.0,23.0,-100.00,ENE,75,3.0,8.0,61,0.00,,,-99.99,,2013-01-27 16:12:00,
2013-01-27 11:21:00,37.0,23.0,-100.00,ENE,75,4.0,9.0,56,0.00,,,-99.99,,2013-01-27 16:21:00,
2013-01-27 11:32:00,35.0,22.0,-100.00,SE,125,3.0,9.0,57,0.00,,,-99.99,,2013-01-27 16:32:00,
2013-01-27 11:42:00,37.0,22.0,-100.00,ENE,65,4.0,7.0,54,0.00,,,-99.99,,2013-01-27 16:42:00,
2013-01-27 11:52:00,38.0,22.0,-100.00,East,95,3.0,8.0,52,0.00,,,-99.99,,2013-01-27 16:52:00,
2013-01-27 12:02:00,37.0,22.0,-100.00,ESE,105,2.0,6.0,54,0.00,,,-99.99,,2013-01-27 17:02:00,
2013-01-27 12:12:00,37.0,22.0,-100.00,ESE,115,2.0,9.0,54,0.00,,,-99.99,,2013-01-27 17:12:00,
2013-01-27 12:22:00,37.0,22.0,-100.00,ENE,60,4.0,6.0,53,0.00,,,-99.99,,2013-01-27 17:22:00,
2013-01-27 12:32:00,38.0,22.0,-100.00,ENE,60,2.0,6.0,52,0.00,,,-99.99,,2013-01-27 17:32:00,
2013-01-27 12:42:00,38.0,22.0,-100.00,East,85,2.0,6.0,52,0.00,,,-99.99,,2013-01-27 17:42:00,
2013-01-27 12:52:00,38.0,22.0,-100.00,ENE,70,3.0,6.0,52,0.00,,,-99.99,,2013-01-27 17:52:00,
2013-01-27 13:02:00,37.0,22.0,-100.00,SE,130,2.0,6.0,52,0.00,,,-99.99,,2013-01-27 18:02:00,
2013-01-27 13:12:00,37.0,22.0,-100.00,SE,135,2.0,6.0,53,0.00,,,-99.99,,2013-01-27 18:12:00,
2013-01-27 13:22:00,38.0,22.0,-100.00,East,100,1.0,4.0,51,0.00,,,-99.99,,2013-01-27 18:22:00,
2013-01-27 13:32:00,38.0,22.0,-100.00,SSE,165,0.0,3.0,50,0.00,,,-99.99,,2013-01-27 18:32:00,
2013-01-27 13:42:00,39.0,21.0,-100.00,SE,130,2.0,4.0,48,0.00,,,-99.99,,2013-01-27 18:42:00,
2013-01-27 13:52:00,40.0,22.0,-100.00,ENE,65,1.0,6.0,48,0.00,,,-99.99,,2013-01-27 18:52:00,
2013-01-27 14:02:00,40.0,22.0,-100.00,SSE,150,1.0,4.0,48,0.00,,,-99.99,,2013-01-27 19:02:00,
2013-01-27 14:12:00,41.0,22.0,-100.00,ENE,65,3.0,6.0,46,0.00,,,-99.99,,2013-01-27 19:12:00,
2013-01-27 14:22:00,41.0,22.0,-100.00,East,95,2.0,5.0,47,0.00,,,-99.99,,2013-01-27 19:22:00,
2013-01-27 14:32:00,41.0,22.0,-100.00,East,80,1.0,4.0,45,0.00,,,-99.99,,2013-01-27 19:32:00,
2013-01-27 14:42:00,40.0,22.0,-100.00,SE,125,2.0,5.0,47,0.00,,,-99.99,,2013-01-27 19:42:00,
2013-01-27 14:52:00,41.0,22.0,-100.00,ENE,75,1.0,4.0,46,0.00,,,-99.99,,2013-01-27 19:52:00,
2013-01-27 15:03:00,41.0,21.0,-100.00,ENE,70,0.0,3.0,45,0.00,,,-99.99,,2013-01-27 20:03:00,
2013-01-27 15:12:00,41.0,21.0,-100.00,ENE,70,3.0,6.0,44,0.00,,,-99.99,,2013-01-27 20:12:00,
2013-01-27 15:22:00,41.0,21.0,-100.00,ENE,65,1.0,6.0,44,0.00,,,-99.99,,2013-01-27 20:22:00,
2013-01-27 15:33:00,41.0,22.0,-100.00,East,90,1.0,6.0,45,0.00,,,-99.99,,2013-01-27 20:33:00,
2013-01-27 15:42:00,41.0,22.0,-100.00,ENE,65,2.0,5.0,46,0.00,,,-99.99,,2013-01-27 20:42:00,
2013-01-27 15:52:00,41.0,21.0,-100.00,ENE,75,2.0,5.0,45,0.00,,,-99.99,,2013-01-27 20:52:00,
2013-01-27 16:02:00,41.0,22.0,-100.00,ENE,75,1.0,4.0,45,0.00,,,-99.99,,2013-01-27 21:02:00,
2013-01-27 16:12:00,41.0,22.0,-100.00,East,80,2.0,4.0,45,0.00,,,-99.99,,2013-01-27 21:12:00,
2013-01-27 16:22:00,41.0,22.0,-100.00,East,80,1.0,3.0,46,0.00,,,-99.99,,2013-01-27 21:22:00,
2013-01-27 16:33:00,41.0,22.0,-100.00,ENE,75,1.0,6.0,45,0.00,,,-99.99,,2013-01-27 21:33:00,
2013-01-27 16:42:00,41.0,22.0,-100.00,ESE,105,2.0,3.0,45,0.00,,,-99.99,,2013-01-27 21:42:00,
2013-01-27 16:52:00,41.0,22.0,-100.00,ENE,70,1.0,3.0,45,0.00,,,-99.99,,2013-01-27 21:52:00,
2013-01-27 17:02:00,41.0,21.0,-100.00,ENE,65,1.0,6.0,44,0.00,,,-99.99,,2013-01-27 22:02:00,
2013-01-27 17:12:00,40.0,21.0,-100.00,East,80,3.0,5.0,45,0.00,,,-99.99,,2013-01-27 22:12:00,
2013-01-27 17:22:00,40.0,21.0,-100.00,East,100,2.0,4.0,45,0.00,,,-99.99,,2013-01-27 22:22:00,
2013-01-27 17:32:00,40.0,21.0,-100.00,ENE,75,2.0,4.0,46,0.00,,,-99.99,,2013-01-27 22:32:00,
2013-01-27 17:42:00,40.0,22.0,-100.00,East,80,2.0,4.0,47,0.00,,,-99.99,,2013-01-27 22:42:00,
2013-01-27 17:52:00,40.0,22.0,-100.00,ENE,60,2.0,7.0,47,0.00,,,-99.99,,2013-01-27 22:52:00,
2013-01-27 18:02:00,40.0,22.0,-100.00,ENE,60,3.0,6.0,48,0.00,,,-99.99,,2013-01-27 23:02:00,
2013-01-27 18:12:00,40.0,22.0,-100.00,ENE,75,2.0,6.0,48,0.00,,,-99.99,,2013-01-27 23:12:00,
2013-01-27 18:22:00,39.0,22.0,-100.00,East,95,2.0,5.0,49,0.00,,,-99.99,,2013-01-27 23:22:00,
2013-01-27 18:32:00,39.0,22.0,-100.00,ENE,70,2.0,4.0,50,0.00,,,-99.99,,2013-01-27 23:32:00,
2013-01-27 18:42:00,39.0,22.0,-100.00,ENE,75,1.0,5.0,50,0.00,,,-99.99,,2013-01-27 23:42:00,
2013-01-27 18:52:00,39.0,22.0,-100.00,NE,35,1.0,6.0,50,0.00,,,-99.99,,2013-01-27 23:52:00,
2013-01-27 19:02:00,39.0,23.0,-100.00,East,90,1.0,4.0,53,0.00,,,-99.99,,2013-01-28 00:02:00,
2013-01-27 19:11:00,39.0,23.0,-100.00,East,90,1.0,3.0,51,0.00,,,-99.99,,2013-01-28 00:11:00,
2013-01-27 19:21:00,39.0,23.0,-100.00,ENE,65,1.0,4.0,51,0.00,,,-99.99,,2013-01-28 00:21:00,
2013-01-27 19:32:00,38.0,24.0,-100.00,ESE,120,2.0,6.0,56,0.00,,,-99.99,,2013-01-28 00:32:00,
2013-01-27 19:42:00,39.0,23.0,-100.00,ENE,60,2.0,6.0,51,0.00,,,-99.99,,2013-01-28 00:42:00,
2013-01-27 19:51:00,38.0,24.0,-100.00,East,100,1.0,4.0,54,0.00,,,-99.99,,2013-01-28 00:51:00,
2013-01-27 20:02:00,38.0,24.0,-100.00,North,5,0.0,1.0,54,0.00,,,-99.99,,2013-01-28 01:02:00,
2013-01-27 20:11:00,39.0,24.0,-100.00,NNE,15,0.0,0.0,56,0.00,,,-99.99,,2013-01-28 01:11:00,
2013-01-27 20:22:00,38.0,24.0,-100.00,East,100,1.0,2.0,56,0.00,,,-99.99,,2013-01-28 01:22:00,
2013-01-27 20:33:00,37.0,25.0,-100.00,East,80,1.0,2.0,61,0.00,,,-99.99,,2013-01-28 01:33:00,
2013-01-27 20:42:00,38.0,26.0,-100.00,ESE,110,0.0,3.0,62,0.00,,,-99.99,,2013-01-28 01:42:00,
2013-01-27 20:52:00,37.0,27.0,-100.00,ESE,110,0.0,2.0,66,0.00,,,-99.99,,2013-01-28 01:52:00,
2013-01-27 21:02:00,37.0,27.0,-100.00,ENE,75,0.0,1.0,65,0.00,,,-99.99,,2013-01-28 02:02:00,
2013-01-27 21:11:00,37.0,27.0,-100.00,East,80,1.0,2.0,67,0.00,,,-99.99,,2013-01-28 02:11:00,
2013-01-27 21:22:00,37.0,27.0,-100.00,NE,45,0.0,2.0,69,0.00,,,-99.99,,2013-01-28 02:22:00,
2013-01-27 21:32:00,37.0,28.0,-100.00,NE,50,0.0,1.0,71,0.00,,,-99.99,,2013-01-28 02:32:00,
2013-01-27 21:42:00,36.0,29.0,-100.00,ENE,65,1.0,2.0,74,0.55,,,-99.99,,2013-01-28 02:42:00,
2013-01-27 21:52:00,36.0,29.0,-100.00,ENE,65,0.0,1.0,75,0.55,,,-99.99,,2013-01-28 02:52:00,
2013-01-27 22:02:00,36.0,29.0,-100.00,ENE,70,1.0,2.0,77,0.00,,,-99.99,,2013-01-28 03:02:00,
2013-01-27 22:12:00,35.0,30.0,-100.00,ENE,70,0.0,2.0,79,0.55,,,-99.99,,2013-01-28 03:12:00,
2013-01-27 22:22:00,36.0,31.0,-100.00,ENE,70,0.0,0.0,81,0.00,,,-99.99,,2013-01-28 03:22:00,
2013-01-27 22:32:00,36.0,31.0,-100.00,ENE,70,0.0,2.0,83,0.00,,,-99.99,,2013-01-28 03:32:00,
2013-01-27 22:42:00,36.0,32.0,-100.00,ENE,70,0.0,1.0,84,0.55,,,-99.99,,2013-01-28 03:42:00,
2013-01-27 22:52:00,35.0,32.0,-100.00,ENE,70,1.0,1.0,86,0.00,,,-99.99,,2013-01-28 03:52:00,
2013-01-27 23:02:00,35.0,31.0,-100.00,NE,50,0.0,2.0,86,0.00,,,-99.99,,2013-01-28 04:02:00,
2013-01-27 23:11:00,35.0,32.0,-100.00,NE,55,1.0,2.0,87,0.55,,,-99.99,,2013-01-28 04:11:00,
2013-01-27 23:22:00,35.0,32.0,-100.00,NE,35,0.0,3.0,87,0.55,,,-99.99,,2013-01-28 04:22:00,
2013-01-27 23:32:00,35.0,32.0,-100.00,ESE,110,0.0,2.0,88,0.00,,,-99.99,,2013-01-28 04:32:00,
2013-01-27 23:42:00,35.0,32.0,-100.00,SSE,155,0.0,1.0,88,1.10,,,-99.99,,2013-01-28 04:42:00,
2013-01-27 23:52:00,35.0,32.0,-100.00,East,90,0.0,1.0,89,1.10,,,-99.99,,2013-01-28 04:52:00,